Location: Le Rouget
(44.8538°N, 2.2328°E)
Time: 07:14:48
(UTC+00:00)

Okean O Rocket - Pass Details

Date: 15 May 2026
Orbit: 614 x 633 km, 98.0° (Epoch: 6 June)

Event Time Altitude Azimuth Distance (km) Brightness Sun altitude
Exits shadow 21:29:46 14° 211° (SSW) 1,736 3.6 -18.8°
Maximum altitude 21:32:44 27° 264° (W) 1,175 3.2 -19.1°
Drops below altitude 10° 21:36:26 10° 324° (NW) 1,982 5.4 -19.5°
Sets 21:38:54 0° 336° (NNW) 2,894 6.6 -19.7°
